* Astronomy

Members Login
Post Info TOPIC: Yaogan XIIII Satellite


L

Posts: 131433
Date:
RE: Yaogan XIIII Satellite
Permalink  
 


YAOGAN 14
1 38257U 12021A   12134.89490777  .00007865  00000-0  26254-3 0   161
2 38257 097.2363 265.5559 0002943 230.1611 276.1160 15.31306444   550

Period:       94.04 minutes
Inclination: 97.24°
Apogee:     474 km
Perigee:     470 km 

TIANTUO 1
1 38258U 12021B   12134.89347429  .00008064  00000-0  26410-3 0   141
2 38258 097.2386 265.5587 0002616 290.6935 215.5354 15.31916346   554

Period:       94 minutes
Inclination: 97.24°
Apogee:     472 km
Perigee:     468 km 



__________________


L

Posts: 131433
Date:
Permalink  
 

 China launches remote-sensing satellite

China Thursday launched remote-sensing satellite Yaogan XIIII that will be used to survey land resources, monitor crop yields and help in natural disaster reduction and prevention.
The satellite was launched from the Taiyuan Satellite Launch Center in northern Shanxi province.

Read more



__________________
Page 1 of 1  sorted by
 
Quick Reply

Please log in to post quick replies.



Create your own FREE Forum
Report Abuse
Powered by ActiveBoard